Regional Weather Roundup
Issued by NWS

Home | Current Version | Previous Version | Graphics & Text | Print | Product List | Glossary On
Versions: 1 2 3 4 5 6 7 8 9 10 11 12 13 14 15 16 17 18 19 20 21 22 23 24 25 26 27 28 29 30 31 32 33 34 35 36 37 38 39 40 41 42 43 44 45 46 47 48 49 50
000
ASUS43 KOAX 220302
RWRNE

WEATHER ROUNDUP FOR NEBRASKA
NATIONAL WEATHER SERVICE OMAHA NE
1000 PM CDT MON JUL 21 2014

NOTES: SATELLITE DATA IS BEING USED TO AUGMENT CLOUD COVER ABOVE
       12000 FEET.
       "FAIR" INDICATES FEW OR NO CLOUDS BELOW 12,000 FEET WITH NO
       SIGNIFICANT WEATHER AND/OR OBSTRUCTIONS TO VISIBILITY.

  * THESE STATIONS DO NOT REPORT WEATHER SUCH AS RAIN...SNOW OR FOG.

NEZ001>004-019>022-054>056-220400-
NEBRASKA PANHANDLE

CITY           SKY/WX    TMP DP  RH WIND       PRES   REMARKS
SCOTTSBLUFF    PTCLDY    72  61  68 E6        30.01R
ALLIANCE       PTCLDY    75  51  43 S7        30.00R
CHADRON        PTCLDY    87  46  24 S15       29.92R
KIMBALL        PTCLDY    74  49  41 SE8       30.10R
SIDNEY         PTCLDY    79  47  32 E9        30.09R
$$

NEZ057>060-069>072-079>082-220400-
SOUTHWEST NEBRASKA

CITY           SKY/WX    TMP DP  RH WIND       PRES   REMARKS
NORTH PLATTE   PTCLDY    81  58  45 S8        29.95R
IMPERIAL       PTCLDY    82  57  42 S12       29.99R
LEXINGTON      MOCLDY    80  70  70 S3        29.93R
MCCOOK         MOCLDY    80  61  52 SW6       29.95R
OGALLALA       CLOUDY    79  56  45 NE15      30.02F
$$

NEZ005>010-023>029-035>040-094-220400-
NORTH CENTRAL NEBRASKA

CITY           SKY/WX    TMP DP  RH WIND       PRES   REMARKS
VALENTINE      CLEAR     80  64  58 SW5       29.87R
AINSWORTH      CLEAR     78  61  55 S8        29.89R
BROKEN BOW     PTCLDY    80  66  62 CALM      29.91R
O`NEILL        PTCLDY    82  65  57 S5        29.85R
THEDFORD       CLEAR     87  56  35 W8        29.95R
$$

NEZ041-046>049-061>064-073>077-083>087-220400-
SOUTH CENTRAL NEBRASKA

CITY           SKY/WX    TMP DP  RH WIND       PRES   REMARKS
GRAND ISLAND   CLOUDY    90  69  50 S12       29.89R HX  94
AURORA         MOCLDY    87  73  62 S10       29.89R HX  94
HASTINGS       MOCLDY    87  70  56 S8        29.91R HX  92
HEBRON         MOCLDY    87  67  50 S9        29.90S HX  90
HOLDREGE       MOCLDY    84  69  60 CALM      29.94R
KEARNEY *      MOCLDY    86  70  58 SW10      29.93R HX  90
YORK           MOCLDY    86  73  66 S14       29.89R HX  93
$$

NEZ011>018-030>034-042>045-220400-
NORTHEAST NEBRASKA

CITY           SKY/WX    TMP DP  RH WIND       PRES   REMARKS
NORFOLK        MOCLDY    85  76  74 S9        29.83R HX  94
ALBION         MOCLDY    83  73  71 CALM      29.86R
BLAIR          CLOUDY    87  65  47 S10       29.85R
COLUMBUS *     CLOUDY    88  72  58 SW8       29.85R HX  94
TEKAMAH        MOCLDY    86  79  79 SE8       29.82R HX  99
WAYNE          MOCLDY    84  80  89 S7        29.83R HX  97
$$

NEZ050>053-065>068-078-088>093-220400-
SOUTHEAST NEBRASKA

CITY           SKY/WX    TMP DP  RH WIND       PRES   REMARKS
LINCOLN        MOCLDY    92  71  50 SW15      29.86R HX  98
OMAHA EPPLEY   CLOUDY    89  76  65 S13       29.85R HX 100
BEATRICE       PTCLDY    82  71  69 S9        29.90R
FALLS CITY     PTCLDY    86  74  67 S12G21    29.90R HX  94
NEBRASKA CITY  MOCLDY    83  74  75 S12       29.88R HX  90
PLATTSMOUTH    MOCLDY    85  75  72 S12       29.86R HX  94
$$

NEZ044-045-051>053-067-220400-
OMAHA AREA

CITY           SKY/WX    TMP DP  RH WIND       PRES   REMARKS
OMAHA EPPLEY   CLOUDY    89  76  65 S13       29.85R HX 100
BLAIR          CLOUDY    87  65  47 S10       29.85R
MILLARD        CLOUDY    87  76  71 SE5       29.86R HX  98
OFFUTT AFB     CLOUDY    85  81  88 E1        29.86R HX 101
PLATTSMOUTH    MOCLDY    85  75  72 S12       29.86R HX  94
WAHOO          FAIR      85  75  73 S5        29.85R HX  93
$$


USA.gov is the U.S. government's official web portal to all federal, state and local government web resources and services.